Location: Rowland
(34.5359°N, 79.2929°W)
Time: 18:50:00
(UTC+00:00)

Transit 2A - Pass Details

Date: 07 October 2022
Orbit: 598 x 959 km, 66.7° (Epoch: 03 December)

Event Time Altitude Azimuth Distance (km) Brightness Sun altitude
Rises 12:03:47 0° 338° (NNW) 3,012 8.7 8.8°
Reaches altitude 10° 12:06:02 10° 342° (NNW) 2,142 8.1 9.2°
Maximum altitude 12:10:51 59° 62° (ENE) 849 6.8 10.2°
Drops below altitude 10° 12:16:10 10° 142° (SE) 2,364 9.6 11.2°
Sets 12:18:45 0° 146° (SE) 3,352 10.2 11.8°
